Home   Weather   Bologna   Past weeks

Flag for Italy Past Weather in Bologna, Italy — Yesterday and Last 2 Weeks

Now
66 °F

Scattered clouds.


Feels Like: 66 °F
Forecast: 49 / 61 °F
Wind: 6 mph from North

Location: Bologna / Borgo Panigale

Current Time: Apr 27, 2017 at 5:14:39 pm

Latest Report: Apr 27, 2017 at 4:20 pm


Visibility: 5 mi

Pressure: 29.71 "Hg

Humidity: 83%

Dew Point: 61 °F

Location of BolognaLocation

Past Weather in Bologna — Graph

°F

Bologna Temperature Yesterday

Maximum temperature yesterday: 68 °F (at 2:20 pm)
Minimum temperature yesterday: 57 °F (at 4:20 am)
Average temperature yesterday: 62 °F

High & Low Weather Summary for the Past Weeks

 TemperatureHumidityPressure
High75 °F (Apr 13, 3:50 pm)100% (Apr 26, 9:20 pm)30.42 "Hg (Apr 26, 9:20 pm)
Low36 °F (Apr 19, 4:50 am)17% (Apr 20, 4:50 pm)29.71 "Hg (Apr 27, 1:50 am)
Average57 °F64%29.99 "Hg
* Reported Apr 12 3:20 pm — Apr 27 3:50 pm, Bologna, Weather by CustomWeather, © 2017

Note: Actual official high and low records may vary slightly from our data, if they occured in-between our weather recording intervals... More about our weather records

Advertising

Bologna Weather History for the Previous 24 Hours

Scroll right to see more
 ConditionsComfort  
Time TempWeatherWind HumidityBarometerVisibility
3:50 pm
Thu, Apr 27
66 °FScattered clouds.7 mph83%29.74 "Hg5 mi
3:20 pm66 °FScattered clouds.5 mph83%29.74 "Hg4 mi
2:50 pm66 °FFog.5 mph83%29.74 "Hg3 mi
2:20 pm64 °FFog.6 mph83%29.74 "Hg3 mi
1:50 pm64 °FFog.8 mph83%29.74 "Hg3 mi
1:20 pm66 °FFog.7 mph83%29.74 "Hg3 mi
12:50 pm66 °FFog.3 mph83%29.77 "Hg3 mi
12:20 pm64 °FFog.3 mph83%29.77 "Hg2 mi
11:50 am63 °FFog.6 mph88%29.77 "Hg2 mi
11:20 am63 °FFog.5 mph88%29.77 "Hg2 mi
10:50 am61 °FFog.6 mph88%29.77 "Hg2 mi
10:20 am61 °FFog.5 mph88%29.77 "Hg2 mi
9:50 am61 °FFog.3 mph88%29.74 "Hg1 mi
9:20 am59 °FFog.3 mph94%29.74 "Hg1 mi
8:50 am59 °FFog.2 mph94%29.74 "Hg1 mi
8:20 am59 °FFog.3 mph94%29.74 "Hg1 mi
7:50 am57 °FFog.1 mph100%29.74 "Hg1 mi
7:20 am57 °FFog.2 mph100%29.74 "Hg2 mi
6:50 am57 °FFog.2 mph94%29.74 "Hg1 mi
6:20 am57 °FLight rain. Fog.5 mph94%29.74 "Hg1 mi
5:50 am57 °FFog.5 mph94%29.71 "Hg1 mi
5:20 am57 °FRain. Fog.3 mph94%29.71 "Hg1 mi
4:50 am57 °FRain. Fog.5 mph94%29.71 "Hg2 mi
4:20 am55 °FFog.7 mph100%29.71 "Hg1 mi
3:20 am55 °FFog.6 mph100%29.71 "Hg1 mi
2:50 am55 °FFog.6 mph100%29.71 "Hg1 mi
2:20 am63 °FPassing clouds.10 mph73%29.71 "HgN/A
1:50 am63 °FPassing clouds.5 mph73%29.71 "HgN/A
1:20 am63 °FPassing clouds.7 mph73%29.74 "HgN/A
12:50 am63 °FPassing clouds.9 mph73%29.74 "HgN/A
12:20 am63 °FPassing clouds.7 mph73%29.74 "HgN/A
11:50 pm
Wed, Apr 26
63 °FClear.15 mph73%29.74 "Hg10 mi
11:20 pm61 °FPassing clouds.9 mph83%29.74 "HgN/A
10:50 pm59 °FClear.6 mph88%29.74 "Hg10 mi
10:20 pm61 °FPassing clouds.6 mph83%29.77 "HgN/A
9:50 pm59 °FPassing clouds.6 mph94%29.77 "HgN/A
9:20 pm57 °FPassing clouds.3 mph100%29.77 "HgN/A
8:50 pm57 °FPassing clouds.5 mph94%29.74 "Hg4 mi
7:50 pm59 °FDrizzle. Broken clouds.6 mph94%29.77 "Hg3 mi
7:20 pm66 °FPartly sunny.8 mph56%29.77 "HgN/A
6:50 pm64 °FScattered clouds.7 mph64%29.74 "HgN/A
6:20 pm64 °FScattered clouds.13 mph64%29.74 "HgN/A
5:50 pm66 °FScattered clouds.16 mph56%29.74 "HgN/A
5:20 pm66 °FPartly sunny.16 mph56%29.74 "HgN/A
Weather by CustomWeather, © 2017

See weather overviewHow to use our weather pages